Time,TemperatureF,DewpointF,PressureIn,WindDirection,WindDirectionDegrees,WindSpeedMPH,WindSpeedGustMPH,Humidity,HourlyPrecipIn,Conditions,Clouds,dailyrainin,SoftwareType,DateUTC
2013-08-21 00:03:00,60.1,35.7,29.77,NW,305,0.0,0.0,40,0.00,,---,0.00,VWS V14.01,2013-08-21 07:03:00,
2013-08-21 00:08:00,60.1,35.7,29.77,NW,305,0.0,0.0,40,0.00,,---,0.00,VWS V14.01,2013-08-21 07:08:00,
2013-08-21 00:13:00,60.1,35.7,29.77,NW,305,0.0,0.0,40,0.00,,---,0.00,VWS V14.01,2013-08-21 07:13:00,
2013-08-21 00:18:00,60.0,36.2,29.77,NW,305,0.0,0.0,41,0.00,,---,0.00,VWS V14.01,2013-08-21 07:18:00,
2013-08-21 00:23:00,60.1,36.3,29.77,NW,305,0.0,0.0,41,0.00,,---,0.00,VWS V14.01,2013-08-21 07:23:00,
2013-08-21 00:28:00,60.1,36.3,29.77,NW,305,0.0,0.0,41,0.00,,---,0.00,VWS V14.01,2013-08-21 07:28:00,
2013-08-21 00:33:00,60.2,36.4,29.77,NW,304,0.0,0.0,41,0.00,,---,0.00,VWS V14.01,2013-08-21 07:33:00,
2013-08-21 00:38:00,60.3,36.5,29.77,NW,305,0.0,0.0,41,0.00,,---,0.00,VWS V14.01,2013-08-21 07:38:00,
2013-08-21 00:43:00,60.4,36.0,29.77,NW,305,0.0,0.0,40,0.00,,---,0.00,VWS V14.01,2013-08-21 07:43:00,
2013-08-21 00:48:00,60.5,36.1,29.77,NW,305,0.0,0.0,40,0.00,,---,0.00,VWS V14.01,2013-08-21 07:48:00,
2013-08-21 00:53:00,60.4,36.0,29.76,NW,305,0.0,0.0,40,0.00,,---,0.00,VWS V14.01,2013-08-21 07:53:00,
2013-08-21 00:58:00,60.3,35.9,29.76,NW,305,0.0,0.0,40,0.00,,---,0.00,VWS V14.01,2013-08-21 07:58:00,
2013-08-21 01:03:00,60.3,35.9,29.76,NW,305,0.0,0.0,40,0.00,,---,0.00,VWS V14.01,2013-08-21 08:03:00,
2013-08-21 01:08:00,60.2,35.8,29.76,NW,305,0.0,0.0,40,0.00,,---,0.00,VWS V14.01,2013-08-21 08:08:00,
2013-08-21 01:13:00,60.1,35.1,29.76,NW,305,0.0,0.0,39,0.00,,---,0.00,VWS V14.01,2013-08-21 08:13:00,
2013-08-21 01:18:00,60.0,35.0,29.76,NW,305,0.0,0.0,39,0.00,,---,0.00,VWS V14.01,2013-08-21 08:18:00,
2013-08-21 01:23:00,59.9,35.5,29.76,NW,305,0.0,0.0,40,0.00,,---,0.00,VWS V14.01,2013-08-21 08:23:00,
2013-08-21 01:28:00,59.8,35.5,29.75,NW,305,0.0,0.0,40,0.00,,---,0.00,VWS V14.01,2013-08-21 08:28:00,
2013-08-21 01:33:00,59.6,35.3,29.75,NW,305,0.0,0.0,40,0.00,,---,0.00,VWS V14.01,2013-08-21 08:33:00,
2013-08-21 01:38:00,59.4,35.1,29.75,NW,305,0.0,0.0,40,0.00,,---,0.00,VWS V14.01,2013-08-21 08:38:00,
2013-08-21 01:43:00,59.0,35.3,29.75,NW,305,0.0,0.0,41,0.00,,---,0.00,VWS V14.01,2013-08-21 08:43:00,
2013-08-21 01:48:00,58.8,35.2,29.75,NW,305,0.0,0.0,41,0.00,,---,0.00,VWS V14.01,2013-08-21 08:48:00,
2013-08-21 01:53:00,58.6,35.6,29.75,NW,305,0.0,0.0,42,0.00,,---,0.00,VWS V14.01,2013-08-21 08:53:00,
2013-08-21 01:58:00,58.3,35.3,29.75,NW,305,0.0,0.0,42,0.00,,---,0.00,VWS V14.01,2013-08-21 08:58:00,
2013-08-21 02:03:00,58.0,35.7,29.75,NW,305,0.0,0.0,43,0.00,,---,0.00,VWS V14.01,2013-08-21 09:03:00,
2013-08-21 02:08:00,57.9,35.6,29.75,NW,304,0.0,0.0,43,0.00,,---,0.00,VWS V14.01,2013-08-21 09:08:00,
2013-08-21 02:13:00,57.8,36.0,29.75,NW,305,0.0,0.0,44,0.00,,---,0.00,VWS V14.01,2013-08-21 09:13:00,
2013-08-21 02:18:00,57.8,36.0,29.74,NW,305,0.0,0.0,44,0.00,,---,0.00,VWS V14.01,2013-08-21 09:18:00,
2013-08-21 02:23:00,57.8,36.0,29.75,NW,305,0.0,0.0,44,0.00,,---,0.00,VWS V14.01,2013-08-21 09:23:00,
2013-08-21 02:28:00,57.8,36.0,29.74,NW,305,0.0,0.0,44,0.00,,---,0.00,VWS V14.01,2013-08-21 09:28:00,
2013-08-21 02:33:00,57.9,36.1,29.74,NW,305,0.0,0.0,44,0.00,,---,0.00,VWS V14.01,2013-08-21 09:33:00,
2013-08-21 02:38:00,58.0,36.8,29.74,NW,305,0.0,0.0,45,0.00,,---,0.00,VWS V14.01,2013-08-21 09:38:00,
2013-08-21 02:43:00,58.1,36.9,29.74,NW,305,0.0,0.0,45,0.00,,---,0.00,VWS V14.01,2013-08-21 09:43:00,
2013-08-21 02:48:00,58.3,37.1,29.74,NW,305,0.0,0.0,45,0.00,,---,0.00,VWS V14.01,2013-08-21 09:48:00,
2013-08-21 02:53:00,58.3,36.5,29.74,NW,305,0.0,0.0,44,0.00,,---,0.00,VWS V14.01,2013-08-21 09:53:00,
2013-08-21 02:58:00,58.2,37.0,29.74,NW,305,0.0,0.0,45,0.00,,---,0.00,VWS V14.01,2013-08-21 09:58:00,
2013-08-21 03:03:00,58.0,37.4,29.74,NW,305,0.0,0.0,46,0.00,,---,0.00,VWS V14.01,2013-08-21 10:03:00,
2013-08-21 03:08:00,58.0,37.4,29.74,NW,305,0.0,0.0,46,0.00,,---,0.00,VWS V14.01,2013-08-21 10:08:00,
2013-08-21 03:13:00,58.0,37.4,29.74,NW,305,0.0,0.0,46,0.00,,---,0.00,VWS V14.01,2013-08-21 10:13:00,
2013-08-21 03:18:00,57.7,37.1,29.73,NW,305,0.0,0.0,46,0.00,,---,0.00,VWS V14.01,2013-08-21 10:18:00,
2013-08-21 03:24:00,57.4,37.3,29.73,NW,305,0.0,0.0,47,0.00,,---,0.00,VWS V14.01,2013-08-21 10:24:00,
2013-08-21 03:29:00,57.1,37.6,29.74,NW,305,0.0,0.0,48,0.00,,---,0.00,VWS V14.01,2013-08-21 10:29:00,
2013-08-21 03:34:00,56.9,37.4,29.74,NW,305,0.0,0.0,48,0.00,,---,0.00,VWS V14.01,2013-08-21 10:34:00,
2013-08-21 03:39:00,56.6,37.2,29.74,NW,305,0.0,0.0,48,0.00,,---,0.00,VWS V14.01,2013-08-21 10:39:00,
2013-08-21 03:44:00,56.5,37.6,29.74,NW,305,0.0,0.0,49,0.00,,---,0.00,VWS V14.01,2013-08-21 10:44:00,
2013-08-21 03:49:00,56.4,37.5,29.74,NW,305,0.0,0.0,49,0.00,,---,0.00,VWS V14.01,2013-08-21 10:49:00,
2013-08-21 03:54:00,56.3,37.9,29.73,NW,304,0.0,0.0,50,0.00,,---,0.00,VWS V14.01,2013-08-21 10:54:00,
2013-08-21 03:59:00,56.5,37.6,29.74,NW,305,0.0,0.0,49,0.00,,---,0.00,VWS V14.01,2013-08-21 10:59:00,
2013-08-21 04:04:00,56.4,38.0,29.73,NW,305,0.0,0.0,50,0.00,,---,0.00,VWS V14.01,2013-08-21 11:04:00,
2013-08-21 04:09:00,56.2,38.3,29.73,NW,305,0.0,0.0,51,0.00,,---,0.00,VWS V14.01,2013-08-21 11:09:00,
2013-08-21 04:14:00,56.2,37.8,29.74,NW,305,0.0,0.0,50,0.00,,---,0.00,VWS V14.01,2013-08-21 11:14:00,
2013-08-21 04:19:00,56.4,38.0,29.74,NW,305,0.0,0.0,50,0.00,,---,0.00,VWS V14.01,2013-08-21 11:19:00,
2013-08-21 04:24:00,56.5,37.6,29.74,NW,304,0.0,0.0,49,0.00,,---,0.00,VWS V14.01,2013-08-21 11:24:00,
2013-08-21 04:29:00,56.4,37.5,29.74,NW,305,0.0,0.0,49,0.00,,---,0.00,VWS V14.01,2013-08-21 11:29:00,
2013-08-21 04:34:00,56.3,37.9,29.74,NW,305,0.0,0.0,50,0.00,,---,0.00,VWS V14.01,2013-08-21 11:34:00,
2013-08-21 04:39:00,56.2,38.3,29.74,NW,305,0.0,0.0,51,0.00,,---,0.00,VWS V14.01,2013-08-21 11:39:00,
2013-08-21 04:44:00,56.0,37.6,29.74,NW,305,0.0,0.0,50,0.00,,---,0.00,VWS V14.01,2013-08-21 11:44:00,
2013-08-21 04:49:00,55.8,37.5,29.74,NW,305,0.0,0.0,50,0.00,,---,0.00,VWS V14.01,2013-08-21 11:49:00,
2013-08-21 04:54:00,55.7,38.4,29.74,NW,304,0.0,0.0,52,0.00,,---,0.00,VWS V14.01,2013-08-21 11:54:00,
2013-08-21 04:59:00,55.5,37.7,29.74,NW,304,0.0,0.0,51,0.00,,---,0.00,VWS V14.01,2013-08-21 11:59:00,
2013-08-21 05:04:00,55.3,37.5,29.75,NW,305,0.0,0.0,51,0.00,,---,0.00,VWS V14.01,2013-08-21 12:04:00,
2013-08-21 05:09:00,54.9,37.6,29.75,NW,305,0.0,0.0,52,0.00,,---,0.00,VWS V14.01,2013-08-21 12:09:00,
2013-08-21 05:14:00,54.7,37.9,29.75,NW,305,0.0,0.0,53,0.00,,---,0.00,VWS V14.01,2013-08-21 12:14:00,
2013-08-21 05:19:00,54.5,37.7,29.75,NW,305,0.0,0.0,53,0.00,,---,0.00,VWS V14.01,2013-08-21 12:19:00,
2013-08-21 05:24:00,54.4,37.6,29.75,NW,305,0.0,0.0,53,0.00,,---,0.00,VWS V14.01,2013-08-21 12:24:00,
2013-08-21 05:29:00,54.3,38.0,29.75,NW,305,0.0,0.0,54,0.00,,---,0.00,VWS V14.01,2013-08-21 12:29:00,
2013-08-21 05:34:00,54.3,38.0,29.75,NW,305,0.0,0.0,54,0.00,,---,0.00,VWS V14.01,2013-08-21 12:34:00,
2013-08-21 05:39:00,54.0,37.8,29.75,NW,305,0.0,0.0,54,0.00,,---,0.00,VWS V14.01,2013-08-21 12:39:00,
2013-08-21 05:44:00,54.0,39.6,29.75,NW,305,0.0,0.0,58,0.00,,---,0.00,VWS V14.01,2013-08-21 12:44:00,
2013-08-21 05:49:00,54.0,40.0,29.75,NW,305,0.0,0.0,59,0.00,,---,0.00,VWS V14.01,2013-08-21 12:49:00,
2013-08-21 05:54:00,53.6,37.4,29.75,NW,305,0.0,0.0,54,0.00,,---,0.00,VWS V14.01,2013-08-21 12:54:00,
2013-08-21 05:59:00,53.1,37.4,29.75,NW,305,0.0,0.0,55,0.00,,---,0.00,VWS V14.01,2013-08-21 12:59:00,
2013-08-21 06:04:00,52.8,37.1,29.75,NW,305,0.0,0.0,55,0.00,,---,0.00,VWS V14.01,2013-08-21 13:04:00,
2013-08-21 06:09:00,52.7,37.0,29.75,NW,305,0.0,0.0,55,0.00,,---,0.00,VWS V14.01,2013-08-21 13:09:00,
2013-08-21 06:14:00,52.9,39.4,29.76,NW,305,0.0,0.0,60,0.00,,---,0.00,VWS V14.01,2013-08-21 13:14:00,
2013-08-21 06:19:00,52.9,39.8,29.76,NW,305,0.0,0.0,61,0.00,,---,0.00,VWS V14.01,2013-08-21 13:19:00,
2013-08-21 06:24:00,52.7,37.5,29.76,NW,305,0.0,0.0,56,0.00,,---,0.00,VWS V14.01,2013-08-21 13:24:00,
2013-08-21 06:29:00,52.3,38.0,29.76,NW,305,0.0,0.0,58,0.00,,---,0.00,VWS V14.01,2013-08-21 13:29:00,
2013-08-21 06:34:00,52.0,38.6,29.76,NW,305,0.0,0.0,60,0.00,,---,0.00,VWS V14.01,2013-08-21 13:34:00,
2013-08-21 06:39:00,51.6,37.3,29.76,NW,305,0.0,0.0,58,0.00,,---,0.00,VWS V14.01,2013-08-21 13:39:00,
2013-08-21 06:44:00,51.3,37.0,29.76,NW,305,0.0,0.0,58,0.00,,---,0.00,VWS V14.01,2013-08-21 13:44:00,
2013-08-21 06:49:00,51.3,37.0,29.76,NW,305,0.0,0.0,58,0.00,,---,0.00,VWS V14.01,2013-08-21 13:49:00,
2013-08-21 06:55:00,51.4,38.0,29.76,NW,305,0.0,0.0,60,0.00,,---,0.00,VWS V14.01,2013-08-21 13:55:00,
2013-08-21 07:00:00,51.7,37.4,29.76,NW,305,0.0,0.0,58,0.00,,---,0.00,VWS V14.01,2013-08-21 14:00:00,
2013-08-21 07:05:00,52.0,40.2,29.77,NW,305,0.0,0.0,64,0.00,,---,0.00,VWS V14.01,2013-08-21 14:05:00,
2013-08-21 07:10:00,52.4,41.0,29.77,NW,305,0.0,0.0,65,0.00,,---,0.00,VWS V14.01,2013-08-21 14:10:00,
2013-08-21 07:15:00,53.1,40.8,29.77,NW,305,0.0,0.0,63,0.00,,---,0.00,VWS V14.01,2013-08-21 14:15:00,
2013-08-21 07:20:00,54.2,41.5,29.77,NW,306,0.0,0.0,62,0.00,,---,0.00,VWS V14.01,2013-08-21 14:20:00,
2013-08-21 07:25:00,56.0,43.2,29.77,NW,305,0.0,0.0,62,0.00,,---,0.00,VWS V14.01,2013-08-21 14:25:00,
2013-08-21 07:30:00,57.2,43.0,29.77,NW,305,0.0,0.0,59,0.00,,---,0.00,VWS V14.01,2013-08-21 14:30:00,
2013-08-21 07:35:00,58.4,44.6,29.77,NW,305,0.0,0.0,60,0.00,,---,0.00,VWS V14.01,2013-08-21 14:35:00,
2013-08-21 07:40:00,59.2,44.5,29.77,NW,304,0.0,0.0,58,0.00,,---,0.00,VWS V14.01,2013-08-21 14:40:00,
2013-08-21 07:45:00,60.1,44.8,29.77,NW,305,0.0,0.0,57,0.00,,---,0.00,VWS V14.01,2013-08-21 14:45:00,
2013-08-21 07:50:00,60.8,45.0,29.77,NW,304,0.0,0.0,56,0.00,,---,0.00,VWS V14.01,2013-08-21 14:50:00,
2013-08-21 07:55:00,62.0,45.7,29.77,NW,305,0.0,0.0,55,0.00,,---,0.00,VWS V14.01,2013-08-21 14:55:00,
2013-08-21 08:00:00,62.8,43.4,29.77,NW,305,0.0,0.0,49,0.00,,---,0.00,VWS V14.01,2013-08-21 15:00:00,
2013-08-21 08:05:00,63.7,43.7,29.77,NW,305,0.0,0.0,48,0.00,,---,0.00,VWS V14.01,2013-08-21 15:05:00,
2013-08-21 08:10:00,65.8,44.5,29.77,NW,305,0.0,0.0,46,0.00,,---,0.00,VWS V14.01,2013-08-21 15:10:00,
2013-08-21 08:15:00,68.3,44.3,29.77,NW,304,0.0,0.0,42,0.00,,---,0.00,VWS V14.01,2013-08-21 15:15:00,
2013-08-21 08:20:00,68.8,42.2,29.77,NW,315,0.0,0.0,38,0.00,,---,0.00,VWS V14.01,2013-08-21 15:20:00,
2013-08-21 08:25:00,69.0,43.7,29.77,NW,319,0.0,0.0,40,0.00,,---,0.00,VWS V14.01,2013-08-21 15:25:00,
2013-08-21 08:30:00,69.7,43.7,29.76,NW,319,2.0,2.0,39,0.00,,---,0.00,VWS V14.01,2013-08-21 15:30:00,
2013-08-21 08:35:00,70.1,46.0,29.76,WNW,297,1.0,1.0,42,0.00,,---,0.00,VWS V14.01,2013-08-21 15:35:00,
2013-08-21 08:40:00,70.7,43.9,29.76,NNW,331,1.0,1.0,38,0.00,,---,0.00,VWS V14.01,2013-08-21 15:40:00,
2013-08-21 08:45:00,71.4,43.1,29.76,NW,309,1.0,2.0,36,0.00,,---,0.00,VWS V14.01,2013-08-21 15:45:00,
2013-08-21 08:50:00,71.9,43.5,29.76,NNE,15,0.0,1.0,36,0.00,,---,0.00,VWS V14.01,2013-08-21 15:50:00,
2013-08-21 08:55:00,72.3,43.1,29.76,WNW,293,2.0,2.0,35,0.00,,---,0.00,VWS V14.01,2013-08-21 15:55:00,
2013-08-21 09:00:00,72.9,43.7,29.76,North,6,2.0,2.0,35,0.00,,---,0.00,VWS V14.01,2013-08-21 16:00:00,
2013-08-21 09:05:00,73.3,43.3,29.76,WNW,302,0.0,0.0,34,0.00,,---,0.00,VWS V14.01,2013-08-21 16:05:00,
2013-08-21 09:10:00,73.7,42.8,29.76,NNW,329,2.0,2.0,33,0.00,,---,0.00,VWS V14.01,2013-08-21 16:10:00,
2013-08-21 09:15:00,73.8,42.1,29.76,NW,321,3.0,3.0,32,0.00,,---,0.00,VWS V14.01,2013-08-21 16:15:00,
2013-08-21 09:20:00,73.9,42.2,29.76,North,357,0.0,1.0,32,0.00,,---,0.00,VWS V14.01,2013-08-21 16:20:00,
2013-08-21 09:25:00,74.4,42.7,29.76,NW,307,2.0,2.0,32,0.00,,---,0.00,VWS V14.01,2013-08-21 16:25:00,
2013-08-21 09:30:00,74.6,42.0,29.76,NNW,340,1.0,1.0,31,0.00,,---,0.00,VWS V14.01,2013-08-21 16:30:00,
2013-08-21 09:35:00,74.5,41.1,29.76,NNW,332,5.0,5.0,30,0.00,,---,0.00,VWS V14.01,2013-08-21 16:35:00,
2013-08-21 09:40:00,74.6,42.0,29.76,NNW,343,2.0,3.0,31,0.00,,---,0.00,VWS V14.01,2013-08-21 16:40:00,
2013-08-21 09:45:00,74.9,41.4,29.76,NE,51,0.0,1.0,30,0.00,,---,0.00,VWS V14.01,2013-08-21 16:45:00,
2013-08-21 09:50:00,75.5,41.0,29.76,NW,315,2.0,2.0,29,0.00,,---,0.00,VWS V14.01,2013-08-21 16:50:00,
2013-08-21 09:55:00,75.6,41.1,29.76,NW,320,2.0,2.0,29,0.00,,---,0.00,VWS V14.01,2013-08-21 16:55:00,
2013-08-21 10:00:00,76.1,43.3,29.76,West,281,0.0,1.0,31,0.00,,---,0.00,VWS V14.01,2013-08-21 17:00:00,
2013-08-21 10:05:00,76.4,42.7,29.76,NNW,330,2.0,2.0,30,0.00,,---,0.00,VWS V14.01,2013-08-21 17:05:00,
2013-08-21 10:10:00,76.4,41.8,29.76,NW,322,1.0,1.0,29,0.00,,---,0.00,VWS V14.01,2013-08-21 17:10:00,
2013-08-21 10:15:00,76.4,42.7,29.76,NW,311,4.0,4.0,30,0.00,,---,0.00,VWS V14.01,2013-08-21 17:15:00,
2013-08-21 10:21:00,76.6,42.0,29.76,NW,325,1.0,2.0,29,0.00,,---,0.00,VWS V14.01,2013-08-21 17:21:00,
2013-08-21 10:26:00,77.1,42.4,29.76,NNE,16,2.0,2.0,29,0.00,,---,0.00,VWS V14.01,2013-08-21 17:26:00,
2013-08-21 10:31:00,77.1,40.6,29.76,NE,35,1.0,3.0,27,0.00,,---,0.00,VWS V14.01,2013-08-21 17:31:00,
2013-08-21 10:36:00,77.0,41.4,29.76,NW,326,5.0,7.0,28,0.00,,---,0.00,VWS V14.01,2013-08-21 17:36:00,
2013-08-21 10:41:00,76.9,41.3,29.76,North,360,8.0,8.0,28,0.00,,---,0.00,VWS V14.01,2013-08-21 17:41:00,
2013-08-21 10:46:00,76.9,42.3,29.76,West,274,3.0,6.0,29,0.00,,---,0.00,VWS V14.01,2013-08-21 17:46:00,
2013-08-21 10:51:00,77.3,40.8,29.76,West,260,2.0,2.0,27,0.00,,---,0.00,VWS V14.01,2013-08-21 17:51:00,
2013-08-21 10:56:00,77.9,42.2,29.76,NNW,332,2.0,5.0,28,0.00,,---,0.00,VWS V14.01,2013-08-21 17:56:00,
2013-08-21 11:01:00,78.0,41.3,29.76,NW,316,1.0,1.0,27,0.00,,---,0.00,VWS V14.01,2013-08-21 18:01:00,
2013-08-21 11:06:00,79.3,38.3,29.76,SSE,150,0.0,1.0,23,0.00,,---,0.00,VWS V14.01,2013-08-21 18:06:00,
2013-08-21 11:11:00,79.7,38.7,29.76,NNW,338,3.0,3.0,23,0.00,,---,0.00,VWS V14.01,2013-08-21 18:11:00,
2013-08-21 11:16:00,80.3,38.0,29.76,WSW,240,4.0,4.0,22,0.00,,---,0.00,VWS V14.01,2013-08-21 18:16:00,
2013-08-21 11:21:00,79.6,38.6,29.75,SE,129,4.0,6.0,23,0.00,,---,0.00,VWS V14.01,2013-08-21 18:21:00,
2013-08-21 11:26:00,78.6,37.7,29.76,NNE,22,1.0,2.0,23,0.00,,---,0.00,VWS V14.01,2013-08-21 18:26:00,
2013-08-21 11:31:00,77.5,36.8,29.76,ENE,58,1.0,2.0,23,0.00,,---,0.00,VWS V14.01,2013-08-21 18:31:00,
2013-08-21 11:36:00,76.8,37.3,29.77,NNE,21,6.0,6.0,24,0.00,,---,0.00,VWS V14.01,2013-08-21 18:36:00,
2013-08-21 11:41:00,76.8,37.3,29.76,NE,34,2.0,2.0,24,0.00,,---,0.00,VWS V14.01,2013-08-21 18:41:00,
2013-08-21 11:46:00,77.8,38.2,29.76,NE,34,5.0,5.0,24,0.00,,---,0.00,VWS V14.01,2013-08-21 18:46:00,
2013-08-21 11:51:00,78.1,39.5,29.76,NNE,23,0.0,1.0,25,0.00,,---,0.00,VWS V14.01,2013-08-21 18:51:00,
2013-08-21 11:56:00,78.6,38.8,29.76,NNE,15,2.0,2.0,24,0.00,,---,0.00,VWS V14.01,2013-08-21 18:56:00,
2013-08-21 12:01:00,79.8,38.8,29.76,NNW,330,5.0,6.0,23,0.00,,---,0.00,VWS V14.01,2013-08-21 19:01:00,
2013-08-21 12:06:00,79.5,39.6,29.75,NNE,22,4.0,4.0,24,0.00,,---,0.00,VWS V14.01,2013-08-21 19:06:00,
2013-08-21 12:11:00,79.6,39.7,29.74,NNE,33,6.0,9.0,24,0.00,,---,0.00,VWS V14.01,2013-08-21 19:11:00,
2013-08-21 12:16:00,81.6,39.1,29.74,SW,215,10.0,10.0,22,0.00,,---,0.00,VWS V14.01,2013-08-21 19:16:00,
2013-08-21 12:21:00,81.3,38.9,29.76,SSW,201,2.0,2.0,22,0.00,,---,0.00,VWS V14.01,2013-08-21 19:21:00,
2013-08-21 12:26:00,81.1,39.8,29.75,WNW,294,2.0,2.0,23,0.00,,---,0.00,VWS V14.01,2013-08-21 19:26:00,
2013-08-21 12:31:00,81.8,39.3,29.75,WNW,288,3.0,5.0,22,0.00,,---,0.00,VWS V14.01,2013-08-21 19:31:00,
2013-08-21 12:36:00,80.3,39.2,29.75,NNE,16,1.0,2.0,23,0.00,,---,0.00,VWS V14.01,2013-08-21 19:36:00,
2013-08-21 12:41:00,80.3,40.3,29.75,NW,313,1.0,1.0,24,0.00,,---,0.00,VWS V14.01,2013-08-21 19:41:00,
2013-08-21 12:46:00,80.5,39.3,29.75,WNW,296,1.0,3.0,23,0.00,,---,0.00,VWS V14.01,2013-08-21 19:46:00,
2013-08-21 12:51:00,80.5,39.3,29.75,NE,34,8.0,8.0,23,0.00,,---,0.00,VWS V14.01,2013-08-21 19:51:00,
2013-08-21 12:56:00,80.4,39.2,29.75,NNW,345,0.0,0.0,23,0.00,,---,0.00,VWS V14.01,2013-08-21 19:56:00,
2013-08-21 13:01:00,80.7,38.4,29.75,NNE,12,2.0,2.0,22,0.00,,---,0.00,VWS V14.01,2013-08-21 20:01:00,
2013-08-21 13:06:00,79.9,38.8,29.75,WNW,287,0.0,1.0,23,0.00,,---,0.00,VWS V14.01,2013-08-21 20:06:00,
2013-08-21 13:11:00,79.9,38.8,29.75,NE,45,2.0,2.0,23,0.00,,---,0.00,VWS V14.01,2013-08-21 20:11:00,
2013-08-21 13:16:00,79.9,37.7,29.75,East,99,1.0,2.0,22,0.00,,---,0.00,VWS V14.01,2013-08-21 20:16:00,
2013-08-21 13:21:00,80.0,38.9,29.75,South,177,0.0,1.0,23,0.00,,---,0.00,VWS V14.01,2013-08-21 20:21:00,
2013-08-21 13:26:00,80.8,38.5,29.75,SE,143,0.0,1.0,22,0.00,,---,0.00,VWS V14.01,2013-08-21 20:26:00,
2013-08-21 13:31:00,81.4,38.9,29.74,NW,318,2.0,2.0,22,0.00,,---,0.00,VWS V14.01,2013-08-21 20:31:00,
2013-08-21 13:37:00,82.2,38.4,29.74,West,262,1.0,1.0,21,0.00,,---,0.00,VWS V14.01,2013-08-21 20:37:00,
2013-08-21 13:42:00,83.0,39.1,29.74,SSE,159,1.0,3.0,21,0.00,,---,0.00,VWS V14.01,2013-08-21 20:42:00,
2013-08-21 13:47:00,83.4,38.2,29.74,SE,138,2.0,5.0,20,0.00,,---,0.00,VWS V14.01,2013-08-21 20:47:00,
2013-08-21 13:52:00,83.7,38.4,29.74,SE,141,0.0,0.0,20,0.00,,---,0.00,VWS V14.01,2013-08-21 20:52:00,
2013-08-21 13:57:00,84.3,37.6,29.74,SSW,194,1.0,3.0,19,0.00,,---,0.00,VWS V14.01,2013-08-21 20:57:00,
2013-08-21 14:02:00,84.1,37.4,29.74,South,173,1.0,5.0,19,0.00,,---,0.00,VWS V14.01,2013-08-21 21:02:00,
2013-08-21 14:07:00,84.1,37.4,29.73,SW,219,1.0,2.0,19,0.00,,---,0.00,VWS V14.01,2013-08-21 21:07:00,
2013-08-21 14:12:00,84.5,37.8,29.73,ESE,110,0.0,0.0,19,0.00,,---,0.00,VWS V14.01,2013-08-21 21:12:00,
2013-08-21 14:17:00,85.0,38.2,29.73,SE,138,1.0,1.0,19,0.00,,---,0.00,VWS V14.01,2013-08-21 21:17:00,
2013-08-21 14:22:00,85.1,36.9,29.73,WNW,289,2.0,2.0,18,0.00,,---,0.00,VWS V14.01,2013-08-21 21:22:00,
2013-08-21 14:27:00,85.2,37.0,29.73,WNW,282,1.0,1.0,18,0.00,,---,0.00,VWS V14.01,2013-08-21 21:27:00,
2013-08-21 14:32:00,85.6,37.3,29.72,South,173,0.0,0.0,18,0.00,,---,0.00,VWS V14.01,2013-08-21 21:32:00,
2013-08-21 14:37:00,85.5,37.2,29.72,NNW,342,0.0,1.0,18,0.00,,---,0.00,VWS V14.01,2013-08-21 21:37:00,
2013-08-21 14:42:00,85.6,37.3,29.72,SE,136,0.0,1.0,18,0.00,,---,0.00,VWS V14.01,2013-08-21 21:42:00,
2013-08-21 14:47:00,85.6,37.3,29.72,SW,231,1.0,1.0,18,0.00,,---,0.00,VWS V14.01,2013-08-21 21:47:00,
2013-08-21 14:52:00,85.2,37.0,29.72,ENE,71,1.0,1.0,18,0.00,,---,0.00,VWS V14.01,2013-08-21 21:52:00,
2013-08-21 14:57:00,85.0,38.2,29.71,South,179,0.0,0.0,19,0.00,,---,0.00,VWS V14.01,2013-08-21 21:57:00,
2013-08-21 15:02:00,84.7,37.9,29.71,SW,228,1.0,2.0,19,0.00,,---,0.00,VWS V14.01,2013-08-21 22:02:00,
2013-08-21 15:07:00,84.5,36.4,29.71,WNW,290,2.0,2.0,18,0.00,,---,0.00,VWS V14.01,2013-08-21 22:07:00,
2013-08-21 15:12:00,84.6,37.8,29.71,SW,220,1.0,1.0,19,0.00,,---,0.00,VWS V14.01,2013-08-21 22:12:00,
2013-08-21 15:17:00,85.0,36.8,29.71,SW,221,4.0,4.0,18,0.00,,---,0.00,VWS V14.01,2013-08-21 22:17:00,
2013-08-21 15:22:00,84.6,36.5,29.70,East,96,0.0,0.0,18,0.00,,---,0.00,VWS V14.01,2013-08-21 22:22:00,
2013-08-21 15:27:00,84.7,36.5,29.70,NNE,13,1.0,1.0,18,0.00,,---,0.00,VWS V14.01,2013-08-21 22:27:00,
2013-08-21 15:32:00,84.8,36.6,29.70,East,80,1.0,1.0,18,0.00,,---,0.00,VWS V14.01,2013-08-21 22:32:00,
2013-08-21 15:37:00,84.8,36.6,29.70,SW,221,2.0,2.0,18,0.00,,---,0.00,VWS V14.01,2013-08-21 22:37:00,
2013-08-21 15:42:00,83.9,35.9,29.70,NNW,331,0.0,0.0,18,0.00,,---,0.00,VWS V14.01,2013-08-21 22:42:00,
2013-08-21 15:47:00,83.9,35.9,29.70,SW,233,1.0,2.0,18,0.00,,---,0.00,VWS V14.01,2013-08-21 22:47:00,
2013-08-21 15:52:00,83.5,34.1,29.70,NNW,333,0.0,1.0,17,0.00,,---,0.00,VWS V14.01,2013-08-21 22:52:00,
2013-08-21 15:57:00,83.2,35.3,29.70,NW,311,0.0,0.0,18,0.00,,---,0.00,VWS V14.01,2013-08-21 22:57:00,
2013-08-21 16:02:00,82.7,34.9,29.70,SSW,205,2.0,3.0,18,0.00,,---,0.00,VWS V14.01,2013-08-21 23:02:00,
2013-08-21 16:07:00,82.8,35.0,29.70,South,177,0.0,1.0,18,0.00,,---,0.00,VWS V14.01,2013-08-21 23:07:00,
2013-08-21 16:12:00,82.7,34.9,29.70,NW,306,0.0,0.0,18,0.00,,---,0.00,VWS V14.01,2013-08-21 23:12:00,
2013-08-21 16:17:00,82.5,34.8,29.69,SE,141,0.0,1.0,18,0.00,,---,0.00,VWS V14.01,2013-08-21 23:17:00,
2013-08-21 16:22:00,82.2,34.5,29.69,ENE,61,0.0,0.0,18,0.00,,---,0.00,VWS V14.01,2013-08-21 23:22:00,
2013-08-21 16:27:00,82.1,33.0,29.69,SE,136,1.0,1.0,17,0.00,,---,0.00,VWS V14.01,2013-08-21 23:27:00,
2013-08-21 16:33:00,81.9,34.3,29.69,NNW,345,1.0,1.0,18,0.00,,---,0.00,VWS V14.01,2013-08-21 23:33:00,
2013-08-21 16:38:00,81.7,34.1,29.69,WSW,243,0.0,0.0,18,0.00,,---,0.00,VWS V14.01,2013-08-21 23:38:00,
2013-08-21 16:43:00,81.2,35.1,29.69,South,190,1.0,1.0,19,0.00,,---,0.00,VWS V14.01,2013-08-21 23:43:00,
2013-08-21 16:48:00,81.1,35.0,29.69,WNW,290,1.0,2.0,19,0.00,,---,0.00,VWS V14.01,2013-08-21 23:48:00,
2013-08-21 16:53:00,81.3,35.1,29.69,SSW,209,0.0,0.0,19,0.00,,---,0.00,VWS V14.01,2013-08-21 23:53:00,
2013-08-21 16:58:00,81.5,35.3,29.69,SSW,200,6.0,6.0,19,0.00,,---,0.00,VWS V14.01,2013-08-21 23:58:00,
2013-08-21 17:03:00,81.0,34.9,29.69,WNW,295,0.0,0.0,19,0.00,,---,0.00,VWS V14.01,2013-08-22 00:03:00,
2013-08-21 17:08:00,80.9,36.1,29.69,NNE,27,0.0,0.0,20,0.00,,---,0.00,VWS V14.01,2013-08-22 00:08:00,
2013-08-21 17:13:00,80.7,34.7,29.68,ESE,123,0.0,1.0,19,0.00,,---,0.00,VWS V14.01,2013-08-22 00:13:00,
2013-08-21 17:18:00,80.4,35.7,29.69,SSE,166,0.0,0.0,20,0.00,,---,0.00,VWS V14.01,2013-08-22 00:18:00,
2013-08-21 17:23:00,80.1,35.5,29.68,SSW,201,2.0,2.0,20,0.00,,---,0.00,VWS V14.01,2013-08-22 00:23:00,
2013-08-21 17:28:00,79.8,35.2,29.68,SSE,167,1.0,2.0,20,0.00,,---,0.00,VWS V14.01,2013-08-22 00:28:00,
2013-08-21 17:33:00,80.0,36.6,29.68,SE,131,0.0,0.0,21,0.00,,---,0.00,VWS V14.01,2013-08-22 00:33:00,
2013-08-21 17:38:00,80.1,36.7,29.68,NE,52,0.0,0.0,21,0.00,,---,0.00,VWS V14.01,2013-08-22 00:38:00,
2013-08-21 17:43:00,79.8,36.4,29.68,South,169,1.0,4.0,21,0.00,,---,0.00,VWS V14.01,2013-08-22 00:43:00,
2013-08-21 17:48:00,79.4,37.3,29.68,SE,131,0.0,0.0,22,0.00,,---,0.00,VWS V14.01,2013-08-22 00:48:00,
2013-08-21 17:53:00,79.7,37.5,29.68,SSW,211,1.0,1.0,22,0.00,,---,0.00,VWS V14.01,2013-08-22 00:53:00,
2013-08-21 17:58:00,79.8,37.6,29.68,South,186,0.0,0.0,22,0.00,,---,0.00,VWS V14.01,2013-08-22 00:58:00,
2013-08-21 18:03:00,79.1,37.0,29.68,ESE,115,1.0,2.0,22,0.00,,---,0.00,VWS V14.01,2013-08-22 01:03:00,
2013-08-21 18:08:00,78.6,37.7,29.68,SSE,147,0.0,0.0,23,0.00,,---,0.00,VWS V14.01,2013-08-22 01:08:00,
2013-08-21 18:13:00,78.0,37.2,29.68,West,276,0.0,0.0,23,0.00,,---,0.00,VWS V14.01,2013-08-22 01:13:00,
2013-08-21 18:18:00,77.3,37.7,29.68,WSW,238,0.0,0.0,24,0.00,,---,0.00,VWS V14.01,2013-08-22 01:18:00,
2013-08-21 18:23:00,77.1,38.6,29.68,North,353,1.0,1.0,25,0.00,,---,0.00,VWS V14.01,2013-08-22 01:23:00,
2013-08-21 18:28:00,76.5,38.1,29.69,WNW,283,0.0,0.0,25,0.00,,---,0.00,VWS V14.01,2013-08-22 01:28:00,
2013-08-21 18:33:00,75.9,38.6,29.69,East,81,1.0,1.0,26,0.00,,---,0.00,VWS V14.01,2013-08-22 01:33:00,
2013-08-21 18:38:00,75.1,38.9,29.69,South,184,0.0,0.0,27,0.00,,---,0.00,VWS V14.01,2013-08-22 01:38:00,
2013-08-21 18:43:00,74.5,39.3,29.69,SE,143,0.0,0.0,28,0.00,,---,0.00,VWS V14.01,2013-08-22 01:43:00,
2013-08-21 18:48:00,74.0,39.8,29.69,SE,131,0.0,0.0,29,0.00,,---,0.00,VWS V14.01,2013-08-22 01:48:00,
2013-08-21 18:53:00,73.4,40.1,29.69,SE,127,0.0,0.0,30,0.00,,---,0.00,VWS V14.01,2013-08-22 01:53:00,
2013-08-21 18:58:00,73.3,40.0,29.69,SE,127,0.0,0.0,30,0.00,,---,0.00,VWS V14.01,2013-08-22 01:58:00,
2013-08-21 19:03:00,73.5,40.2,29.69,SSE,159,0.0,0.0,30,0.00,,---,0.00,VWS V14.01,2013-08-22 02:03:00,
2013-08-21 19:08:00,73.2,40.8,29.69,SSE,159,0.0,0.0,31,0.00,,---,0.00,VWS V14.01,2013-08-22 02:08:00,
2013-08-21 19:13:00,72.8,40.4,29.69,SSE,158,0.0,0.0,31,0.00,,---,0.00,VWS V14.01,2013-08-22 02:13:00,
2013-08-21 19:18:00,72.2,40.7,29.69,SSE,162,0.0,0.0,32,0.00,,---,0.00,VWS V14.01,2013-08-22 02:18:00,
2013-08-21 19:23:00,71.4,40.8,29.69,SSW,195,0.0,0.0,33,0.00,,---,0.00,VWS V14.01,2013-08-22 02:23:00,
2013-08-21 19:29:00,70.6,40.9,29.69,SW,218,0.0,0.0,34,0.00,,---,0.00,VWS V14.01,2013-08-22 02:29:00,
2013-08-21 19:34:00,69.8,40.9,29.69,SW,218,0.0,0.0,35,0.00,,---,0.00,VWS V14.01,2013-08-22 02:34:00,
2013-08-21 19:39:00,69.2,41.1,29.69,SW,218,0.0,0.0,36,0.00,,---,0.00,VWS V14.01,2013-08-22 02:39:00,
2013-08-21 19:44:00,68.5,41.2,29.70,SW,218,0.0,0.0,37,0.00,,---,0.00,VWS V14.01,2013-08-22 02:44:00,
2013-08-21 19:49:00,67.9,41.4,29.70,SW,218,0.0,0.0,38,0.00,,---,0.00,VWS V14.01,2013-08-22 02:49:00,
2013-08-21 19:54:00,67.2,41.4,29.70,SW,218,0.0,0.0,39,0.00,,---,0.00,VWS V14.01,2013-08-22 02:54:00,
2013-08-21 19:59:00,66.6,41.5,29.71,SW,218,0.0,0.0,40,0.00,,---,0.00,VWS V14.01,2013-08-22 02:59:00,
2013-08-21 20:04:00,66.0,41.0,29.71,SW,218,0.0,0.0,40,0.00,,---,0.00,VWS V14.01,2013-08-22 03:04:00,
2013-08-21 20:09:00,65.4,41.1,29.71,SW,217,0.0,0.0,41,0.00,,---,0.00,VWS V14.01,2013-08-22 03:09:00,
2013-08-21 20:14:00,64.9,40.7,29.71,SW,218,0.0,0.0,41,0.00,,---,0.00,VWS V14.01,2013-08-22 03:14:00,
2013-08-21 20:19:00,64.4,40.8,29.71,SW,218,0.0,0.0,42,0.00,,---,0.00,VWS V14.01,2013-08-22 03:19:00,
2013-08-21 20:24:00,64.0,41.1,29.72,SW,218,0.0,0.0,43,0.00,,---,0.00,VWS V14.01,2013-08-22 03:24:00,
2013-08-21 20:29:00,63.7,41.4,29.72,SW,218,0.0,0.0,44,0.00,,---,0.00,VWS V14.01,2013-08-22 03:29:00,
2013-08-21 20:34:00,63.4,40.5,29.72,SW,218,0.0,0.0,43,0.00,,---,0.00,VWS V14.01,2013-08-22 03:34:00,
2013-08-21 20:39:00,63.1,41.4,29.73,SW,218,0.0,0.0,45,0.00,,---,0.00,VWS V14.01,2013-08-22 03:39:00,
2013-08-21 20:44:00,62.8,41.2,29.73,SW,218,0.0,0.0,45,0.00,,---,0.00,VWS V14.01,2013-08-22 03:44:00,
2013-08-21 20:49:00,62.4,41.4,29.73,SW,218,0.0,0.0,46,0.00,,---,0.00,VWS V14.01,2013-08-22 03:49:00,
2013-08-21 20:54:00,62.2,41.2,29.73,SW,218,0.0,0.0,46,0.00,,---,0.00,VWS V14.01,2013-08-22 03:54:00,
2013-08-21 20:59:00,61.9,40.9,29.73,SW,218,0.0,0.0,46,0.00,,---,0.00,VWS V14.01,2013-08-22 03:59:00,
2013-08-21 21:01:00,61.8,41.4,29.73,SW,218,0.0,0.0,47,0.00,,---,0.00,VWS V14.01,2013-08-22 04:01:00,
2013-08-21 21:02:00,61.7,41.3,29.73,SW,218,0.0,0.0,47,0.00,,---,0.00,VWS V14.01,2013-08-22 04:02:00,
2013-08-21 21:05:00,61.6,41.2,29.74,SW,218,0.0,0.0,47,0.00,,---,0.00,VWS V14.01,2013-08-22 04:05:00,
2013-08-21 21:08:00,61.4,41.0,29.74,SW,218,0.0,0.0,47,0.00,,---,0.00,VWS V14.01,2013-08-22 04:08:00,
2013-08-21 21:09:00,61.4,41.0,29.74,SW,218,0.0,0.0,47,0.00,,---,0.00,VWS V14.01,2013-08-22 04:09:00,
2013-08-21 21:14:00,61.1,40.7,29.74,SW,218,0.0,0.0,47,0.00,,---,0.00,VWS V14.01,2013-08-22 04:14:00,
2013-08-21 21:19:00,60.8,41.0,29.74,SW,218,0.0,0.0,48,0.00,,---,0.00,VWS V14.01,2013-08-22 04:19:00,
2013-08-21 21:24:00,60.5,40.7,29.74,SW,218,0.0,0.0,48,0.00,,---,0.00,VWS V14.01,2013-08-22 04:24:00,
2013-08-21 21:29:00,60.3,40.5,29.74,SW,219,0.0,0.0,48,0.00,,---,0.00,VWS V14.01,2013-08-22 04:29:00,
2013-08-21 21:34:00,60.0,40.3,29.75,SW,218,0.0,0.0,48,0.00,,---,0.00,VWS V14.01,2013-08-22 04:34:00,
2013-08-21 21:39:00,59.7,40.5,29.75,SSW,212,0.0,0.0,49,0.00,,---,0.00,VWS V14.01,2013-08-22 04:39:00,
2013-08-21 21:44:00,59.6,39.9,29.75,SSW,211,0.0,0.0,48,0.00,,---,0.00,VWS V14.01,2013-08-22 04:44:00,
2013-08-21 21:49:00,59.3,39.6,29.75,SSW,194,0.0,0.0,48,0.00,,---,0.00,VWS V14.01,2013-08-22 04:49:00,
2013-08-21 21:54:00,59.0,39.4,29.75,SSW,194,0.0,0.0,48,0.00,,---,0.00,VWS V14.01,2013-08-22 04:54:00,
2013-08-21 21:59:00,58.6,40.0,29.75,SSW,194,0.0,0.0,50,0.00,,---,0.00,VWS V14.01,2013-08-22 04:59:00,
2013-08-21 22:04:00,58.2,39.7,29.75,SSW,194,0.0,0.0,50,0.00,,---,0.00,VWS V14.01,2013-08-22 05:04:00,
2013-08-21 22:09:00,57.9,39.4,29.75,SSW,194,0.0,0.0,50,0.00,,---,0.00,VWS V14.01,2013-08-22 05:09:00,
2013-08-21 22:14:00,57.5,40.0,29.76,SSW,194,0.0,0.0,52,0.00,,---,0.00,VWS V14.01,2013-08-22 05:14:00,
2013-08-21 22:19:00,57.2,39.8,29.76,SSW,194,0.0,0.0,52,0.00,,---,0.00,VWS V14.01,2013-08-22 05:19:00,
2013-08-21 22:24:00,57.1,39.7,29.76,SSW,195,0.0,0.0,52,0.00,,---,0.00,VWS V14.01,2013-08-22 05:24:00,
2013-08-21 22:30:00,57.0,39.1,29.76,SW,215,0.0,0.0,51,0.00,,---,0.00,VWS V14.01,2013-08-22 05:30:00,
2013-08-21 22:35:00,56.7,39.8,29.76,SW,215,0.0,0.0,53,0.00,,---,0.00,VWS V14.01,2013-08-22 05:35:00,
2013-08-21 22:40:00,56.6,40.2,29.76,SW,215,0.0,0.0,54,0.00,,---,0.00,VWS V14.01,2013-08-22 05:40:00,
2013-08-21 22:45:00,56.6,40.2,29.76,SW,215,0.0,0.0,54,0.00,,---,0.00,VWS V14.01,2013-08-22 05:45:00,
2013-08-21 22:50:00,56.7,40.3,29.76,SW,215,0.0,0.0,54,0.00,,---,0.00,VWS V14.01,2013-08-22 05:50:00,
2013-08-21 22:55:00,56.6,39.7,29.77,SW,215,0.0,0.0,53,0.00,,---,0.00,VWS V14.01,2013-08-22 05:55:00,
2013-08-21 23:00:00,56.4,39.5,29.76,SW,215,0.0,0.0,53,0.00,,---,0.00,VWS V14.01,2013-08-22 06:00:00,
2013-08-21 23:05:00,56.1,39.2,29.76,SW,215,0.0,0.0,53,0.00,,---,0.00,VWS V14.01,2013-08-22 06:05:00,
2013-08-21 23:10:00,55.9,39.0,29.76,SW,215,0.0,0.0,53,0.00,,---,0.00,VWS V14.01,2013-08-22 06:10:00,
2013-08-21 23:15:00,55.7,39.8,29.77,SW,215,0.0,0.0,55,0.00,,---,0.00,VWS V14.01,2013-08-22 06:15:00,
2013-08-21 23:20:00,55.6,38.8,29.77,SW,215,0.0,0.0,53,0.00,,---,0.00,VWS V14.01,2013-08-22 06:20:00,
2013-08-21 23:25:00,55.4,39.0,29.77,SW,215,0.0,0.0,54,0.00,,---,0.00,VWS V14.01,2013-08-22 06:25:00,
2013-08-21 23:30:00,55.3,39.0,29.77,SW,215,0.0,0.0,54,0.00,,---,0.00,VWS V14.01,2013-08-22 06:30:00,
2013-08-21 23:35:00,55.4,39.0,29.77,SW,215,0.0,0.0,54,0.00,,---,0.00,VWS V14.01,2013-08-22 06:35:00,
2013-08-21 23:40:00,55.7,39.3,29.77,WSW,245,0.0,0.0,54,0.00,,---,0.00,VWS V14.01,2013-08-22 06:40:00,
2013-08-21 23:45:00,55.7,38.8,29.77,WSW,245,0.0,0.0,53,0.00,,---,0.00,VWS V14.01,2013-08-22 06:45:00,
2013-08-21 23:50:00,55.7,38.4,29.77,WSW,245,0.0,0.0,52,0.00,,---,0.00,VWS V14.01,2013-08-22 06:50:00,
2013-08-21 23:55:00,55.7,39.3,29.77,WSW,245,0.0,0.0,54,0.00,,---,0.00,VWS V14.01,2013-08-22 06:55:00,